Time,TemperatureF,DewpointF,PressureIn,WindDirection,WindDirectionDegrees,WindSpeedMPH,WindSpeedGustMPH,Humidity,HourlyPrecipIn,Conditions,Clouds,dailyrainin,SolarRadiationWatts/m^2,SoftwareType,DateUTC
2013-07-30 00:02:00,64.6,45.5,29.91,South,169,2.0,2.0,50,0.00,,,0.00,0,Wunderground v.1.15,2013-07-30 07:02:00,
2013-07-30 00:12:00,63.7,45.7,29.91,SSE,167,1.0,1.0,52,0.00,,,0.00,0,Wunderground v.1.15,2013-07-30 07:12:00,
2013-07-30 00:22:00,62.1,46.2,29.90,SW,223,0.0,0.0,56,0.00,,,0.00,0,Wunderground v.1.15,2013-07-30 07:22:00,
2013-07-30 00:32:00,61.8,45.9,29.91,SW,220,0.0,0.0,56,0.00,,,0.00,0,Wunderground v.1.15,2013-07-30 07:32:00,
2013-07-30 00:42:00,61.7,46.3,29.91,NNW,336,0.0,0.0,57,0.00,,,0.00,0,Wunderground v.1.15,2013-07-30 07:42:00,
2013-07-30 00:52:00,60.9,46.5,29.91,NE,38,0.0,0.0,59,0.00,,,0.00,0,Wunderground v.1.15,2013-07-30 07:52:00,
2013-07-30 01:02:00,60.7,46.7,29.91,North,8,1.0,2.0,60,0.00,,,0.00,0,Wunderground v.1.15,2013-07-30 08:02:00,
2013-07-30 01:12:00,60.8,46.4,29.91,North,357,1.0,1.0,59,0.00,,,0.00,0,Wunderground v.1.15,2013-07-30 08:12:00,
2013-07-30 01:22:00,59.4,46.8,29.91,NW,308,1.0,3.0,63,0.00,,,0.00,0,Wunderground v.1.15,2013-07-30 08:22:00,
2013-07-30 01:32:00,58.5,47.2,29.91,NW,316,1.0,1.0,66,0.00,,,0.00,0,Wunderground v.1.15,2013-07-30 08:32:00,
2013-07-30 01:42:00,56.4,46.7,29.91,North,352,1.0,1.0,70,0.00,,,0.00,0,Wunderground v.1.15,2013-07-30 08:42:00,
2013-07-30 01:52:00,57.0,46.5,29.91,NW,311,0.0,0.0,68,0.00,,,0.00,0,Wunderground v.1.15,2013-07-30 08:52:00,
2013-07-30 02:02:00,58.0,46.7,29.91,NNW,337,1.0,1.0,66,0.00,,,0.00,0,Wunderground v.1.15,2013-07-30 09:02:00,
2013-07-30 02:12:00,56.0,46.4,29.91,WNW,299,1.0,1.0,70,0.00,,,0.00,0,Wunderground v.1.15,2013-07-30 09:12:00,
2013-07-30 02:22:00,57.6,46.7,29.91,WNW,288,1.0,3.0,67,0.00,,,0.00,0,Wunderground v.1.15,2013-07-30 09:22:00,
2013-07-30 02:32:00,58.3,45.8,29.91,NW,315,3.0,3.0,63,0.00,,,0.00,0,Wunderground v.1.15,2013-07-30 09:32:00,
2013-07-30 02:42:00,56.7,46.6,29.91,NW,320,1.0,1.0,69,0.00,,,0.00,0,Wunderground v.1.15,2013-07-30 09:42:00,
2013-07-30 02:52:00,55.4,45.8,29.91,NW,320,0.0,0.0,70,0.00,,,0.00,0,Wunderground v.1.15,2013-07-30 09:52:00,
2013-07-30 03:02:00,56.0,46.0,29.91,NW,320,2.0,3.0,69,0.00,,,0.00,0,Wunderground v.1.15,2013-07-30 10:02:00,
2013-07-30 03:12:00,56.3,45.9,29.91,NW,313,4.0,4.0,68,0.00,,,0.00,0,Wunderground v.1.15,2013-07-30 10:12:00,
2013-07-30 03:22:00,57.1,46.2,29.90,NW,305,1.0,1.0,67,0.00,,,0.00,0,Wunderground v.1.15,2013-07-30 10:22:00,
2013-07-30 03:32:00,56.7,46.6,29.91,NW,304,0.0,0.0,69,0.00,,,0.00,0,Wunderground v.1.15,2013-07-30 10:32:00,
2013-07-30 03:42:00,54.5,46.4,29.91,NW,304,0.0,0.0,74,0.00,,,0.00,0,Wunderground v.1.15,2013-07-30 10:42:00,
2013-07-30 03:52:00,52.5,45.8,29.91,NNW,342,1.0,1.0,78,0.00,,,0.00,0,Wunderground v.1.15,2013-07-30 10:52:00,
2013-07-30 04:02:00,52.9,46.6,29.91,NNW,338,0.0,0.0,79,0.00,,,0.00,0,Wunderground v.1.15,2013-07-30 11:02:00,
2013-07-30 04:12:00,53.5,46.5,29.92,NNW,339,0.0,0.0,77,0.00,,,0.00,0,Wunderground v.1.15,2013-07-30 11:12:00,
2013-07-30 04:22:00,53.8,46.4,29.92,SSE,168,0.0,1.0,76,0.00,,,0.00,0,Wunderground v.1.15,2013-07-30 11:22:00,
2013-07-30 04:32:00,54.0,46.6,29.93,SSW,199,0.0,0.0,76,0.00,,,0.00,0,Wunderground v.1.15,2013-07-30 11:32:00,
2013-07-30 04:42:00,53.3,46.3,29.93,WSW,257,0.0,0.0,77,0.00,,,0.00,0,Wunderground v.1.15,2013-07-30 11:42:00,
2013-07-30 04:52:00,53.2,45.8,29.93,West,281,0.0,0.0,76,0.00,,,0.00,0,Wunderground v.1.15,2013-07-30 11:52:00,
2013-07-30 05:02:00,52.7,45.7,29.93,NNW,337,0.0,6.0,77,0.00,,,0.00,0,Wunderground v.1.15,2013-07-30 12:02:00,
2013-07-30 05:12:00,53.3,45.6,29.94,South,184,1.0,1.0,75,0.00,,,0.00,0,Wunderground v.1.15,2013-07-30 12:12:00,
2013-07-30 05:22:00,51.9,45.3,29.94,North,357,1.0,1.0,78,0.00,,,0.00,0,Wunderground v.1.15,2013-07-30 12:22:00,
2013-07-30 05:32:00,52.6,45.2,29.94,NNW,339,1.0,1.0,76,0.00,,,0.00,0,Wunderground v.1.15,2013-07-30 12:32:00,
2013-07-30 05:42:00,52.6,45.2,29.94,WSW,244,1.0,1.0,76,0.00,,,0.00,7,Wunderground v.1.15,2013-07-30 12:42:00,
2013-07-30 05:52:00,52.1,45.8,29.95,SW,234,0.0,0.0,79,0.00,,,0.00,12,Wunderground v.1.15,2013-07-30 12:52:00,
2013-07-30 06:02:00,53.7,46.0,29.95,NW,320,1.0,1.0,75,0.00,,,0.00,16,Wunderground v.1.15,2013-07-30 13:02:00,
2013-07-30 06:12:00,54.0,47.0,29.95,NW,320,0.0,0.0,77,0.00,,,0.00,19,Wunderground v.1.15,2013-07-30 13:12:00,
2013-07-30 06:22:00,55.5,48.4,29.96,NW,308,0.0,0.0,77,0.00,,,0.00,25,Wunderground v.1.15,2013-07-30 13:22:00,
2013-07-30 06:32:00,57.7,48.4,29.96,NW,308,0.0,0.0,71,0.00,,,0.00,32,Wunderground v.1.15,2013-07-30 13:32:00,
2013-07-30 06:42:00,59.1,50.8,29.96,NW,308,0.0,0.0,74,0.00,,,0.00,35,Wunderground v.1.15,2013-07-30 13:42:00,
2013-07-30 06:52:00,61.0,49.6,29.96,NW,308,0.0,0.0,66,0.00,,,0.00,39,Wunderground v.1.15,2013-07-30 13:52:00,
2013-07-30 07:02:00,62.5,48.4,29.97,NW,308,0.0,0.0,60,0.00,,,0.00,54,Wunderground v.1.15,2013-07-30 14:02:00,
2013-07-30 07:12:00,63.1,47.1,29.97,NW,308,0.0,0.0,56,0.00,,,0.00,81,Wunderground v.1.15,2013-07-30 14:12:00,
2013-07-30 07:22:00,63.9,49.7,29.97,NW,311,0.0,0.0,60,0.00,,,0.00,54,Wunderground v.1.15,2013-07-30 14:22:00,
2013-07-30 07:32:00,64.7,49.6,29.97,NNW,340,0.0,0.0,58,0.00,,,0.00,69,Wunderground v.1.15,2013-07-30 14:32:00,
2013-07-30 07:42:00,66.2,50.5,29.97,NNW,340,0.0,0.0,57,0.00,,,0.00,302,Wunderground v.1.15,2013-07-30 14:42:00,
2013-07-30 07:52:00,67.7,50.9,29.97,WNW,292,1.0,4.0,55,0.00,,,0.00,380,Wunderground v.1.15,2013-07-30 14:52:00,
2013-07-30 08:02:00,71.7,46.7,29.97,WSW,238,5.0,11.0,41,0.00,,,0.00,401,Wunderground v.1.15,2013-07-30 15:02:00,
2013-07-30 08:12:00,72.6,47.5,29.97,SSW,192,7.0,10.0,41,0.00,,,0.00,378,Wunderground v.1.15,2013-07-30 15:12:00,
2013-07-30 08:22:00,72.6,46.9,29.97,SW,233,9.0,9.0,40,0.00,,,0.00,454,Wunderground v.1.15,2013-07-30 15:22:00,
2013-07-30 08:32:00,73.1,47.3,29.97,SW,228,8.0,10.0,40,0.00,,,0.00,422,Wunderground v.1.15,2013-07-30 15:32:00,
2013-07-30 08:42:00,73.8,48.0,29.97,South,191,5.0,5.0,40,0.00,,,0.00,540,Wunderground v.1.15,2013-07-30 15:42:00,
2013-07-30 08:52:00,74.0,47.5,29.98,SW,217,5.0,7.0,39,0.00,,,0.00,534,Wunderground v.1.15,2013-07-30 15:52:00,
2013-07-30 09:02:00,74.2,47.0,29.97,SSW,195,5.0,5.0,38,0.00,,,0.00,582,Wunderground v.1.15,2013-07-30 16:02:00,
2013-07-30 09:12:00,75.0,50.3,29.97,SSW,202,5.0,7.0,42,0.00,,,0.00,636,Wunderground v.1.15,2013-07-30 16:12:00,
2013-07-30 09:22:00,75.0,48.4,29.98,WNW,282,6.0,6.0,39,0.00,,,0.00,638,Wunderground v.1.15,2013-07-30 16:22:00,
2013-07-30 09:32:00,75.5,48.1,29.98,SSE,152,6.0,9.0,38,0.00,,,0.00,705,Wunderground v.1.15,2013-07-30 16:32:00,
2013-07-30 09:42:00,76.0,49.2,29.98,SSW,213,5.0,10.0,39,0.00,,,0.00,735,Wunderground v.1.15,2013-07-30 16:42:00,
2013-07-30 09:52:00,76.3,48.1,29.98,SSE,168,6.0,7.0,37,0.00,,,0.00,754,Wunderground v.1.15,2013-07-30 16:52:00,
2013-07-30 10:02:00,76.3,49.5,29.98,WSW,242,5.0,5.0,39,0.00,,,0.00,668,Wunderground v.1.15,2013-07-30 17:02:00,
2013-07-30 10:12:00,76.6,45.3,29.98,WSW,255,4.0,4.0,33,0.00,,,0.00,789,Wunderground v.1.15,2013-07-30 17:12:00,
2013-07-30 10:22:00,77.1,47.3,29.99,SW,231,4.0,4.0,35,0.00,,,0.00,831,Wunderground v.1.15,2013-07-30 17:22:00,
2013-07-30 10:32:00,77.1,46.6,29.99,South,184,6.0,6.0,34,0.00,,,0.00,856,Wunderground v.1.15,2013-07-30 17:32:00,
2013-07-30 10:42:00,77.6,47.0,29.98,WSW,250,5.0,5.0,34,0.00,,,0.00,877,Wunderground v.1.15,2013-07-30 17:42:00,
2013-07-30 10:52:00,77.6,49.3,29.98,SW,229,5.0,5.0,37,0.00,,,0.00,891,Wunderground v.1.15,2013-07-30 17:52:00,
2013-07-30 11:02:00,78.0,48.1,29.98,WSW,257,4.0,4.0,35,0.00,,,0.00,904,Wunderground v.1.15,2013-07-30 18:02:00,
2013-07-30 11:12:00,78.4,47.7,29.97,SSE,161,3.0,4.0,34,0.00,,,0.00,921,Wunderground v.1.15,2013-07-30 18:12:00,
2013-07-30 11:22:00,78.6,48.7,29.97,SW,223,3.0,7.0,35,0.00,,,0.00,937,Wunderground v.1.15,2013-07-30 18:22:00,
2013-07-30 11:32:00,78.8,47.3,29.96,SSW,207,3.0,3.0,33,0.00,,,0.00,951,Wunderground v.1.15,2013-07-30 18:32:00,
2013-07-30 11:42:00,78.8,44.7,29.96,SSW,200,4.0,4.0,30,0.00,,,0.00,965,Wunderground v.1.15,2013-07-30 18:42:00,
2013-07-30 11:52:00,79.4,47.8,29.96,SW,217,3.0,5.0,33,0.00,,,0.00,981,Wunderground v.1.15,2013-07-30 18:52:00,
2013-07-30 12:02:00,79.1,49.1,29.96,SSW,197,4.0,5.0,35,0.00,,,0.00,970,Wunderground v.1.15,2013-07-30 19:02:00,
2013-07-30 12:12:00,79.4,47.8,29.95,SW,232,4.0,4.0,33,0.00,,,0.00,1016,Wunderground v.1.15,2013-07-30 19:12:00,
2013-07-30 12:22:00,79.4,44.4,29.95,SE,124,2.0,2.0,29,0.00,,,0.00,1032,Wunderground v.1.15,2013-07-30 19:22:00,
2013-07-30 12:32:00,80.5,47.9,29.95,South,169,4.0,4.0,32,0.00,,,0.00,1060,Wunderground v.1.15,2013-07-30 19:32:00,
2013-07-30 12:42:00,79.9,48.2,29.94,SSW,209,4.0,4.0,33,0.00,,,0.00,1106,Wunderground v.1.15,2013-07-30 19:42:00,
2013-07-30 12:52:00,79.5,48.7,29.94,SW,224,3.0,5.0,34,0.00,,,0.00,482,Wunderground v.1.15,2013-07-30 19:52:00,
2013-07-30 13:02:00,80.6,47.2,29.94,SSE,166,5.0,5.0,31,0.00,,,0.00,1055,Wunderground v.1.15,2013-07-30 20:02:00,
2013-07-30 13:12:00,79.8,47.3,29.94,SE,133,3.0,4.0,32,0.00,,,0.00,1093,Wunderground v.1.15,2013-07-30 20:12:00,
2013-07-30 13:22:00,81.3,49.4,29.93,WSW,249,3.0,7.0,33,0.00,,,0.00,1079,Wunderground v.1.15,2013-07-30 20:22:00,
2013-07-30 13:32:00,81.3,44.1,29.94,West,273,3.0,3.0,27,0.00,,,0.00,1048,Wunderground v.1.15,2013-07-30 20:32:00,
2013-07-30 13:42:00,81.8,46.4,29.94,SW,235,4.0,4.0,29,0.00,,,0.00,1092,Wunderground v.1.15,2013-07-30 20:42:00,
2013-07-30 13:52:00,80.5,45.3,29.93,SSE,149,2.0,7.0,29,0.00,,,0.00,1139,Wunderground v.1.15,2013-07-30 20:52:00,
2013-07-30 14:02:00,79.6,46.3,29.93,West,269,5.0,5.0,31,0.00,,,0.00,494,Wunderground v.1.15,2013-07-30 21:02:00,
2013-07-30 14:12:00,80.5,46.2,29.93,South,174,3.0,5.0,30,0.00,,,0.00,229,Wunderground v.1.15,2013-07-30 21:12:00,
2013-07-30 14:22:00,81.0,43.9,29.93,SSE,161,4.0,4.0,27,0.00,,,0.00,339,Wunderground v.1.15,2013-07-30 21:22:00,
2013-07-30 14:32:00,79.5,42.6,29.92,SW,225,2.0,2.0,27,0.00,,,0.00,221,Wunderground v.1.15,2013-07-30 21:32:00,
2013-07-30 14:42:00,79.9,43.9,29.92,SW,226,3.0,4.0,28,0.00,,,0.00,1035,Wunderground v.1.15,2013-07-30 21:42:00,
2013-07-30 14:52:00,78.9,43.9,29.92,SSW,192,3.0,5.0,29,0.00,,,0.00,237,Wunderground v.1.15,2013-07-30 21:52:00,
2013-07-30 15:02:00,80.5,43.4,29.92,WSW,242,2.0,2.0,27,0.00,,,0.00,160,Wunderground v.1.15,2013-07-30 22:02:00,
2013-07-30 15:12:00,78.9,43.9,29.92,South,171,0.0,2.0,29,0.00,,,0.00,188,Wunderground v.1.15,2013-07-30 22:12:00,
2013-07-30 15:22:00,80.9,47.4,29.91,West,264,1.0,2.0,31,0.00,,,0.00,912,Wunderground v.1.15,2013-07-30 22:22:00,
2013-07-30 15:32:00,81.6,44.4,29.91,SSW,200,4.0,4.0,27,0.00,,,0.00,838,Wunderground v.1.15,2013-07-30 22:32:00,
2013-07-30 15:42:00,81.5,45.2,29.91,SW,226,4.0,7.0,28,0.00,,,0.00,870,Wunderground v.1.15,2013-07-30 22:42:00,
2013-07-30 15:52:00,81.8,48.2,29.91,WSW,246,4.0,4.0,31,0.00,,,0.00,724,Wunderground v.1.15,2013-07-30 22:52:00,
2013-07-30 16:02:00,81.4,44.2,29.91,SSW,207,3.0,3.0,27,0.00,,,0.00,694,Wunderground v.1.15,2013-07-30 23:02:00,
2013-07-30 16:12:00,81.0,47.5,29.90,South,188,2.0,3.0,31,0.00,,,0.00,694,Wunderground v.1.15,2013-07-30 23:12:00,
2013-07-30 16:22:00,81.6,48.9,29.90,SSW,209,4.0,4.0,32,0.00,,,0.00,497,Wunderground v.1.15,2013-07-30 23:22:00,
2013-07-30 16:32:00,81.1,44.9,29.89,SSW,206,4.0,4.0,28,0.00,,,0.00,601,Wunderground v.1.15,2013-07-30 23:32:00,
2013-07-30 16:42:00,81.1,45.8,29.89,SE,134,4.0,4.0,29,0.00,,,0.00,566,Wunderground v.1.15,2013-07-30 23:42:00,
2013-07-30 16:52:00,80.9,47.4,29.89,ESE,119,3.0,3.0,31,0.00,,,0.00,541,Wunderground v.1.15,2013-07-30 23:52:00,
2013-07-30 17:02:00,81.1,46.7,29.89,South,171,3.0,3.0,30,0.00,,,0.00,497,Wunderground v.1.15,2013-07-31 00:02:00,
2013-07-30 17:12:00,81.1,46.7,29.88,SE,145,2.0,3.0,30,0.00,,,0.00,473,Wunderground v.1.15,2013-07-31 00:12:00,
2013-07-30 17:22:00,80.3,43.3,29.88,South,180,3.0,3.0,27,0.00,,,0.00,436,Wunderground v.1.15,2013-07-31 00:22:00,
2013-07-30 17:32:00,80.1,45.9,29.88,SE,145,1.0,2.0,30,0.00,,,0.00,397,Wunderground v.1.15,2013-07-31 00:32:00,
2013-07-30 17:42:00,80.2,46.8,29.87,SW,228,2.0,3.0,31,0.00,,,0.00,357,Wunderground v.1.15,2013-07-31 00:42:00,
2013-07-30 17:52:00,79.5,49.4,29.87,NW,325,4.0,5.0,35,0.00,,,0.00,308,Wunderground v.1.15,2013-07-31 00:52:00,
2013-07-30 18:02:00,78.9,49.7,29.87,WNW,286,4.0,4.0,36,0.00,,,0.00,151,Wunderground v.1.15,2013-07-31 01:02:00,
2013-07-30 18:12:00,78.4,48.5,29.87,West,279,1.0,1.0,35,0.00,,,0.00,237,Wunderground v.1.15,2013-07-31 01:12:00,
2013-07-30 18:22:00,78.9,45.7,29.87,WNW,284,0.0,2.0,31,0.00,,,0.00,47,Wunderground v.1.15,2013-07-31 01:22:00,
2013-07-30 18:32:00,78.0,48.9,29.88,WNW,284,1.0,2.0,36,0.00,,,0.00,130,Wunderground v.1.15,2013-07-31 01:32:00,
2013-07-30 18:42:00,77.3,46.7,29.87,West,271,0.0,1.0,34,0.00,,,0.00,116,Wunderground v.1.15,2013-07-31 01:42:00,
2013-07-30 18:52:00,75.8,47.7,29.88,WSW,238,0.0,0.0,37,0.00,,,0.00,26,Wunderground v.1.15,2013-07-31 01:52:00,
2013-07-30 19:02:00,74.2,49.0,29.88,WSW,253,1.0,1.0,41,0.00,,,0.00,21,Wunderground v.1.15,2013-07-31 02:02:00,
2013-07-30 19:12:00,73.4,48.9,29.88,WNW,296,0.0,0.0,42,0.00,,,0.00,16,Wunderground v.1.15,2013-07-31 02:12:00,
2013-07-30 19:22:00,72.9,49.1,29.88,West,278,0.0,1.0,43,0.00,,,0.00,11,Wunderground v.1.15,2013-07-31 02:22:00,
2013-07-30 19:32:00,70.8,50.7,29.88,WNW,289,1.0,1.0,49,0.00,,,0.00,0,Wunderground v.1.15,2013-07-31 02:32:00,
2013-07-30 19:42:00,68.9,53.5,29.88,WNW,289,0.0,0.0,58,0.00,,,0.00,0,Wunderground v.1.15,2013-07-31 02:42:00,
2013-07-30 19:52:00,67.3,53.4,29.89,SW,231,0.0,0.0,61,0.00,,,0.00,0,Wunderground v.1.15,2013-07-31 02:52:00,
2013-07-30 20:02:00,67.6,53.7,29.89,SW,231,0.0,0.0,61,0.00,,,0.00,0,Wunderground v.1.15,2013-07-31 03:02:00,
2013-07-30 20:12:00,66.7,52.8,29.89,SW,231,0.0,0.0,61,0.00,,,0.00,0,Wunderground v.1.15,2013-07-31 03:12:00,
2013-07-30 20:22:00,65.6,53.1,29.89,WSW,238,0.0,0.0,64,0.00,,,0.00,0,Wunderground v.1.15,2013-07-31 03:22:00,
2013-07-30 20:32:00,64.8,52.3,29.90,WSW,238,0.0,0.0,64,0.00,,,0.00,0,Wunderground v.1.15,2013-07-31 03:32:00,
2013-07-30 20:42:00,64.5,52.9,29.90,WSW,238,0.0,0.0,66,0.00,,,0.00,0,Wunderground v.1.15,2013-07-31 03:42:00,
2013-07-30 20:52:00,63.7,52.5,29.90,NW,320,0.0,0.0,67,0.00,,,0.00,0,Wunderground v.1.15,2013-07-31 03:52:00,
2013-07-30 21:02:00,62.4,52.5,29.90,NW,320,0.0,0.0,70,0.00,,,0.00,0,Wunderground v.1.15,2013-07-31 04:02:00,
2013-07-30 21:12:00,62.2,51.9,29.91,NW,320,0.0,0.0,69,0.00,,,0.00,0,Wunderground v.1.15,2013-07-31 04:12:00,
2013-07-30 21:22:00,61.9,52.8,29.91,NW,320,0.0,0.0,72,0.00,,,0.00,0,Wunderground v.1.15,2013-07-31 04:22:00,
2013-07-30 21:32:00,61.1,52.7,29.91,NW,320,0.0,0.0,74,0.00,,,0.00,0,Wunderground v.1.15,2013-07-31 04:32:00,
2013-07-30 21:42:00,60.9,52.6,29.91,NW,320,0.0,0.0,74,0.00,,,0.00,0,Wunderground v.1.15,2013-07-31 04:42:00,
2013-07-30 21:52:00,60.3,51.6,29.91,WSW,252,0.0,0.0,73,0.00,,,0.00,0,Wunderground v.1.15,2013-07-31 04:52:00,
2013-07-30 22:02:00,60.4,52.1,29.91,WSW,249,0.0,0.0,74,0.00,,,0.00,0,Wunderground v.1.15,2013-07-31 05:02:00,
2013-07-30 22:12:00,59.5,52.6,29.92,WSW,256,0.0,0.0,78,0.00,,,0.00,0,Wunderground v.1.15,2013-07-31 05:12:00,
2013-07-30 22:22:00,60.0,52.1,29.92,WSW,256,0.0,0.0,75,0.00,,,0.00,0,Wunderground v.1.15,2013-07-31 05:22:00,
2013-07-30 22:32:00,59.6,52.4,29.92,WSW,256,0.0,0.0,77,0.00,,,0.00,0,Wunderground v.1.15,2013-07-31 05:32:00,
2013-07-30 22:42:00,58.6,51.8,29.92,WSW,255,0.0,0.0,78,0.00,,,0.00,0,Wunderground v.1.15,2013-07-31 05:42:00,
2013-07-30 22:52:00,58.3,51.8,29.92,WSW,255,0.0,2.0,79,0.00,,,0.00,0,Wunderground v.1.15,2013-07-31 05:52:00,
2013-07-30 23:02:00,58.5,51.7,29.92,WSW,255,0.0,0.0,78,0.00,,,0.00,0,Wunderground v.1.15,2013-07-31 06:02:00,
2013-07-30 23:12:00,58.2,51.7,29.92,WSW,255,0.0,0.0,79,0.00,,,0.00,0,Wunderground v.1.15,2013-07-31 06:12:00,
2013-07-30 23:22:00,57.8,52.0,29.92,WSW,255,0.0,0.0,81,0.00,,,0.00,0,Wunderground v.1.15,2013-07-31 06:22:00,
2013-07-30 23:32:00,56.8,51.7,29.93,WSW,255,0.0,0.0,83,0.00,,,0.00,0,Wunderground v.1.15,2013-07-31 06:32:00,
2013-07-30 23:42:00,56.8,51.7,29.93,WSW,255,0.0,0.0,83,0.00,,,0.00,0,Wunderground v.1.15,2013-07-31 06:42:00,
2013-07-30 23:52:00,56.4,51.3,29.93,WSW,255,0.0,0.0,83,0.00,,,0.00,0,Wunderground v.1.15,2013-07-31 06:52:00,